This is the latest recevied weather packets stored in our database for station/object WX7FGZ-3. If no packets are shown the sender has not sent any weather packets the latest 10 day(s).
| Time | Temp. | Humidity | Pressure | Rain* | Wind** | Luminosity | Snow |
|---|---|---|---|---|---|---|---|
| 1778082425 | 9.44° C | 54% | 1013.1 hPa | 0 mm | - | - | - |
| 1778081876 | 8.89° C | 56% | 1012.8 hPa | 0 mm | - | - | - |
| 1778081825 | 8.89° C | 56% | 1012.8 hPa | 0 mm | - | - | - |
| 1778081525 | 8.33° C | 57% | 1013.1 hPa | 0 mm | - | - | - |
| 1778081224 | 8.33° C | 59% | 1013 hPa | 0 mm | - | - | - |
| 1778080924 | 7.78° C | 60% | 1013.1 hPa | 0 mm | - | - | - |
| 1778080623 | 7.22° C | 61% | 1013.1 hPa | 0 mm | - | - | - |
| 1778080323 | 7.22° C | 65% | 1012.9 hPa | 0 mm | - | - | - |
| 1778080023 | 6.67° C | 69% | 1013 hPa | 0 mm | - | - | - |
| 1778079422 | 6.11° C | 72% | 1013.2 hPa | 0 mm | - | - | - |
| 1778078822 | 5.56° C | 73% | 1013.2 hPa | 0 mm | - | - | - |
| 1778077620 | 5° C | 72% | 1013.2 hPa | 0 mm | - | - | - |
| 1778077020 | 5° C | 73% | 1013.3 hPa | 0 mm | - | - | - |
| 1778076720 | 4.44° C | 74% | 1013.3 hPa | 0 mm | - | - | - |
| 1778076419 | 4.44° C | 74% | 1013.3 hPa | 0 mm | - | - | - |
| 1778075519 | 3.89° C | 74% | 1012.9 hPa | 0 mm | - | - | - |
| 1778075218 | 3.89° C | 74% | 1012.9 hPa | 0 mm | - | - | - |
| 1778074918 | 3.89° C | 74% | 1012.8 hPa | 0 mm | - | - | - |
| 1778074618 | 3.89° C | 74% | 1012.7 hPa | 0 mm | - | - | - |
| 1778074317 | 3.89° C | 75% | 1012.7 hPa | 0 mm | - | - | - |
| 1778073717 | 3.33° C | 76% | 1012.6 hPa | 0 mm | - | - | - |
| 1778073416 | 3.33° C | 77% | 1012.5 hPa | 0 mm | - | - | - |
| 1778073116 | 3.33° C | 77% | 1012.6 hPa | 0 mm | - | - | - |
| 1778072816 | 2.78° C | 78% | 1012.5 hPa | 0 mm | - | - | - |
| 1778072215 | 2.78° C | 78% | 1012.4 hPa | 0 mm | - | - | - |
* Rain latest hour (hover to see other rain measurements)
** Current wind speed in m/s (hover to see current wind gust speed)